map of RIA home
RIA - Airport
Location
City:  Santa Maria, Rio Grande do Sul, Brazil
ICAO:SBSM
IATA:RIA

Details
Type:Airport (Aerodrome, Airfield)
Use:Public/Civil, Military
Latitude:2942'41"S (-29.711357)
Longitude:5341'17"W (-53.688152)
Datum:WGS 1984
Elevation:287 ft (87 m)
Variation:15.46W (WMM2015v2 magnetic declination)
-0.15 annual change
Runways:2
Longest:8858 × 148 ft (2700 × 45 m), paved

Time
Time Zone:UTC-3 (DST-2)
Local Time:

Weather
METAR:SBSM 041400Z 10011KT 070V140 9999 BKN030 24/17 Q1021
TAF:SBSM 040830Z 0412/0424 10007KT 9999 FEW040 TN21/0412Z TX26/0418Z
BECMG 0421/0423 CAVOK
RMK PER

Related Locations
Nearby:
Farthest:TKN: 12236 mi / 19692 km
Tokunoshima [Tokunoshima Airport], Satsunan Islands, 46, JP

Find:

   beyond  
but within

Other Information
Maps:
NOTAMs:
Links:
Sources:

  
  • flag of Brazil
  • flag of Rio Grande do Sul
  

Sectional Chart

Flight Planning
at skyvector.com

Satellite Image

Google Maps Satellite view

 

Copyright © 2004-2019 Karl L. Swartz. All rights reserved.
The Great Circle Mapper name and logo are trademarks of the Great Circle Mapper.
All other trademarks mentioned herein belong to their respective owners.
Please see credits for attibutions and further copyright information.

  Follow gcmap on Facebook Follow gcmap on Twitter GCmap on LinkedIn

hCard Microformat

Geo Microformat